Regional Weather Roundup
Issued by NWS

Home | Current Version | Previous Version | Graphics & Text | Print | Product List | Glossary Off
Versions: 1 2 3 4 5 6 7 8 9 10 11 12 13 14 15 16 17 18 19 20 21 22 23 24 25 26 27 28 29 30 31 32 33 34 35 36 37 38 39 40 41 42 43 44 45 46 47 48 49 50

000
ASUS43 KFSD 300410
RWRSD

WEATHER ROUNDUP FOR SOUTH DAKOTA
NATIONAL WEATHER SERVICE SIOUX FALLS SD
1100 PM CDT THU SEP 29 2016

NOTE: "FAIR" INDICATES FEW OR NO CLOUDS BELOW 12,000 FEET WITH NO
SIGNIFICANT WEATHER AND/OR OBSTRUCTIONS TO VISIBILITY.


SDZ001>005-009-010-012>017-300500-
NORTHWEST AND NORTH CENTRAL SOUTH DAKOTA

CITY           SKY/WX    TMP DP  RH WIND       PRES   REMARKS
BUFFALO          N/A     67  41  38 SE23G31   30.06F
FAITH            N/A     58  43  57 SE23      30.19S
MOBRIDGE       CLEAR     59  45  59 SE17G24   30.24S
$$

SDZ012>016-024>037-041>051-057-063-072>074-300500-
SOUTHWEST AND SOUTH CENTRAL SOUTH DAKOTA

CITY           SKY/WX    TMP DP  RH WIND       PRES   REMARKS
RAPID CTY ARPT PTCLDY    60  44  55 SE10      30.19S
PIERRE         CLEAR     57  45  64 SE15      30.26S
CUSTER         CLOUDY    59  40  49 CALM      30.30F
ELLSWORTH AFB  CLOUDY    62  45  52 S12       30.17F
PHILIP         CLEAR     58  41  53 E9        30.21S
PINE RIDGE     CLEAR     65  41  41 S18G33    30.21S
WINNER         FAIR      52  45  77 SE10      30.30R
$$

SDZ004>011-016>023-039-040-300500-
NORTHEAST SOUTH DAKOTA

CITY           SKY/WX    TMP DP  RH WIND       PRES   REMARKS
ABERDEEN       CLEAR     49  44  83 SE5       30.33S
WATERTOWN      CLEAR     54  46  74 SE6       30.36S
BROOKINGS      CLEAR     52  47  83 SE8       30.36S
SISSETON         N/A     46  44  93 S5        30.36S
$$

SDZ017-020-022-023-036>040-048>070-300500-
SOUTHEAST SOUTH DAKOTA

CITY           SKY/WX    TMP DP  RH WIND       PRES   REMARKS
SIOUX FALLS    CLEAR     50  45  83 E5        30.36S
HURON          CLEAR     52  45  77 SE8       30.32S
CHAMBERLAIN    CLEAR     53  48  84 SE9       30.31S
MITCHELL       CLEAR     50  45  83 SE6       30.34S
YANKTON        CLEAR     54  46  76 E6        30.33S
$$

ABBREVIATIONS USED IN REMARKS
   TC - TEMPERATURE IN CELSIUS
  WCI - WIND CHILL INDEX
   HX - HEAT INDEX
  VSB - VISIBILITY





USA.gov is the U.S. government's official web portal to all federal, state and local government web resources and services.